STARLINK-36105

Last updated on Mon Dec 15 2025 00:02:12 GMT+0000 (Coordinated Universal Time)

1 66850U 25281C 25348.25003472 -.01153123 00000+0 -48407-2 0 9990 2 66850 43.0005 113.0296 0001486 265.8198 259.1292 15.87294915 1641
UTC large
Height (km)
Speed (km/s)
/
Latitude / Longitude
Inclination (degrees)
Orbital Period (minutes)
Azimuth
Elevation
Range (km)
Doppler Factor

Next 0 passes for location: London (51.5072 / 0.1276)

Sorry there are no passes over London.